TimeAEDT,TemperatureF,Dew PointF,Humidity,Sea Level PressureIn,VisibilityMPH,Wind Direction,Wind SpeedMPH,Gust SpeedMPH,PrecipitationIn,Events,Conditions,WindDirDegrees,DateUTC
12:00 AM,60,57,85,29.86,,West,4.6,,,,,260,2012-10-26 13:00:00
12:00 AM,60.8,57.2,88,29.86,6.2,West,4.6,-,N/A,,Unknown,260,2012-10-26 13:00:00
12:30 AM,60.8,55.4,82,29.86,6.2,West,8.1,-,N/A,,Unknown,270,2012-10-26 13:30:00
1:00 AM,60.8,50.0,68,29.86,6.2,SW,8.1,-,N/A,,Unknown,230,2012-10-26 14:00:00
1:30 AM,60.8,48.2,63,29.86,6.2,SW,5.8,-,N/A,,Unknown,230,2012-10-26 14:30:00
2:00 AM,61,49,56,29.88,,WSW,9.2,,,,,240,2012-10-26 15:00:00
2:00 AM,60.8,50.0,68,29.86,6.2,WSW,9.2,-,N/A,,Unknown,240,2012-10-26 15:00:00
2:30 AM,60.8,50.0,68,29.86,6.2,WSW,8.1,-,N/A,,Unknown,240,2012-10-26 15:30:00
3:00 AM,60,51,65,29.88,,SW,8.1,,,,,230,2012-10-26 16:00:00
3:00 AM,60.8,51.8,72,29.86,6.2,SW,8.1,-,N/A,,Unknown,230,2012-10-26 16:00:00
3:30 AM,59.0,50.0,72,29.86,6.2,WSW,5.8,-,N/A,,Unknown,250,2012-10-26 16:30:00
4:00 AM,57.2,51.8,82,29.86,6.2,SSW,8.1,-,N/A,,Unknown,210,2012-10-26 17:00:00
4:30 AM,57.2,51.8,82,29.89,6.2,WSW,8.1,-,N/A,,Unknown,240,2012-10-26 17:30:00
5:00 AM,57,41,44,29.90,,SW,10.4,,,,,230,2012-10-26 18:00:00
5:00 AM,57.2,41.0,55,29.89,6.2,SW,10.4,-,N/A,,Unknown,230,2012-10-26 18:00:00
5:30 AM,55.4,39.2,54,29.92,6.2,WSW,9.2,-,N/A,,Unknown,240,2012-10-26 18:30:00
6:00 AM,54,38,42,29.93,,WSW,6.9,,,,,240,2012-10-26 19:00:00
6:00 AM,53.6,37.4,54,29.92,6.2,WSW,6.9,-,N/A,,Unknown,240,2012-10-26 19:00:00
6:30 AM,53.6,37.4,54,29.92,6.2,WSW,8.1,-,N/A,,Unknown,250,2012-10-26 19:30:00
7:00 AM,57.2,37.4,48,29.95,6.2,West,8.1,-,N/A,,Unknown,260,2012-10-26 20:00:00
7:30 AM,57.2,37.4,48,29.98,6.2,West,9.2,-,N/A,,Unknown,280,2012-10-26 20:30:00
8:00 AM,62,36,27,29.98,,West,9.2,,,,,260,2012-10-26 21:00:00
8:00 AM,62.6,37.4,39,29.98,6.2,West,9.2,-,N/A,,Unknown,260,2012-10-26 21:00:00
8:30 AM,64.4,35.6,34,29.98,6.2,WSW,10.4,-,N/A,,Unknown,250,2012-10-26 21:30:00
9:00 AM,66,36,21,30.00,,WSW,11.5,,,,,250,2012-10-26 22:00:00
9:00 AM,66.2,35.6,32,29.98,6.2,WSW,11.5,-,N/A,,Unknown,250,2012-10-26 22:00:00
9:30 AM,66.2,35.6,32,29.98,6.2,SW,10.4,-,N/A,,Unknown,220,2012-10-26 22:30:00
10:00 AM,66.2,33.8,30,29.98,6.2,SW,11.5,-,N/A,,Unknown,220,2012-10-26 23:00:00
10:30 AM,68.0,37.4,33,30.01,6.2,SSE,13.8,-,N/A,,Unknown,160,2012-10-26 23:30:00
11:00 AM,67,38,23,30.01,,South,17.3,,,,,180,2012-10-27 00:00:00
11:00 AM,68.0,39.2,35,30.01,6.2,South,17.3,-,N/A,,Unknown,180,2012-10-27 00:00:00
11:30 AM,68.0,39.2,35,30.01,6.2,South,17.3,-,N/A,,Unknown,170,2012-10-27 00:30:00
12:00 PM,67,43,30,30.02,,SSE,18.4,,,,,160,2012-10-27 01:00:00
12:00 PM,68.0,42.8,40,30.01,6.2,SSE,18.4,-,N/A,,Unknown,160,2012-10-27 01:00:00
12:30 PM,69.8,46.4,43,30.01,6.2,SSE,18.4,-,N/A,,Unknown,160,2012-10-27 01:30:00
1:00 PM,68.0,46.4,46,30.01,6.2,SSE,19.6,-,N/A,,Unknown,150,2012-10-27 02:00:00
1:30 PM,66.2,48.2,52,30.01,6.2,SSE,16.1,-,N/A,,Scattered Clouds,160,2012-10-27 02:30:00
1:43 PM,66.2,48.2,52,30.01,6.2,SSE,17.3,28.8,N/A,,Scattered Clouds,160,2012-10-27 02:43:00
2:00 PM,67,47,37,30.02,,SSE,17.3,,,,,150,2012-10-27 03:00:00
2:00 PM,66.2,46.4,49,30.01,6.2,SSE,17.3,-,N/A,,Scattered Clouds,150,2012-10-27 03:00:00
2:30 PM,68.0,48.2,49,30.01,6.2,SSE,17.3,-,N/A,,Scattered Clouds,150,2012-10-27 03:30:00
3:00 PM,68,45,32,30.02,,SSE,19.6,,,,,160,2012-10-27 04:00:00
3:00 PM,68.0,44.6,43,30.01,6.2,SSE,19.6,-,N/A,,Scattered Clouds,160,2012-10-27 04:00:00
3:30 PM,66.2,44.6,46,30.01,6.2,SE,20.7,-,N/A,,Scattered Clouds,140,2012-10-27 04:30:00
4:00 PM,66.2,44.6,46,30.01,6.2,SE,18.4,-,N/A,,Scattered Clouds,140,2012-10-27 05:00:00
4:30 PM,64.4,44.6,49,30.01,6.2,SE,18.4,-,N/A,,Scattered Clouds,130,2012-10-27 05:30:00
5:00 PM,65,44,35,30.03,,SE,17.3,,,,,140,2012-10-27 06:00:00
5:00 PM,64.4,44.6,49,30.01,6.2,SE,17.3,-,N/A,,Scattered Clouds,140,2012-10-27 06:00:00
5:30 PM,64.4,44.6,49,30.04,6.2,SSE,17.3,-,N/A,,Unknown,150,2012-10-27 06:30:00
6:00 PM,64.4,42.8,45,30.04,6.2,SSE,17.3,-,N/A,,Unknown,160,2012-10-27 07:00:00
6:30 PM,62.6,44.6,52,30.06,6.2,SE,17.3,-,N/A,,Unknown,140,2012-10-27 07:30:00
7:00 PM,60.8,46.4,59,30.09,6.2,SE,12.7,-,N/A,,Scattered Clouds,140,2012-10-27 08:00:00
7:30 PM,59.0,42.8,55,30.09,6.2,SE,11.5,-,N/A,,Scattered Clouds,140,2012-10-27 08:30:00
8:00 PM,59,43,43,30.14,,SE,10.4,,,,,130,2012-10-27 09:00:00
8:00 PM,59.0,42.8,55,30.12,6.2,SE,10.4,-,N/A,,Scattered Clouds,130,2012-10-27 09:00:00
8:30 PM,59.0,41.0,51,30.15,6.2,SE,11.5,-,N/A,,Scattered Clouds,140,2012-10-27 09:30:00
9:00 PM,59,44,45,30.18,,SSE,12.7,,,,,150,2012-10-27 10:00:00
9:00 PM,59.0,42.8,55,30.15,6.2,SSE,12.7,-,N/A,,Scattered Clouds,150,2012-10-27 10:00:00
9:30 PM,59.0,42.8,55,30.18,6.2,SE,13.8,-,N/A,,Mostly Cloudy,140,2012-10-27 10:30:00
10:00 PM,59.0,42.8,55,30.18,6.2,SE,13.8,-,N/A,,Mostly Cloudy,140,2012-10-27 11:00:00
10:30 PM,60.8,42.8,52,30.18,6.2,SSE,10.4,-,N/A,,Mostly Cloudy,150,2012-10-27 11:30:00
11:00 PM,61,45,45,30.21,,SE,10.4,,,,,140,2012-10-27 12:00:00
11:00 PM,60.8,44.6,55,30.18,6.2,SE,10.4,-,N/A,,Overcast,140,2012-10-27 12:00:00
11:30 PM,62.6,44.6,52,30.21,6.2,SSE,11.5,-,N/A,,Overcast,160,2012-10-27 12:30:00